Regional Weather Roundup
Issued by NWS Raleigh/Durham, NC

Home | Current Version | Previous Version | Text Only | Print | Product List | Glossary On
Versions: 1 2 3 4 5 6 7 8 9 10 11 12 13 14 15 16 17 18 19 20 21 22 23 24 25 26 27 28 29 30 31 32 33 34 35 36 37 38 39 40 41 42 43 44 45 46 47 48 49 50
000
ASUS42 KRAH 040810
RWRRAH
NORTH CAROLINA WEATHER ROUNDUP
NATIONAL WEATHER SERVICE RALEIGH NC
400 AM EDT FRI SEP 04 2015

NOTE: "FAIR" INDICATES FEW OR NO CLOUDS BELOW 12,000 FEET WITH NO
SIGNIFICANT WEATHER AND/OR OBSTRUCTIONS TO VISIBILITY.

NCZ001-053-055-056-065-067-040900-
WESTERN NORTH CAROLINA

CITY           SKY/WX    TMP DP  RH WIND       PRES   REMARKS
ASHEVILLE      CLEAR     67  62  84 CALM      30.07R
JEFFERSON      CLEAR     67  58  74 NW3       30.11R
MORGANTON      CLEAR     64  64 100 CALM      30.05R FOG
HICKORY        CLEAR     70  65  84 NW7       29.99R
RUTHERFORDTON  CLEAR     72  65  79 CALM      29.99R
MOUNT AIRY     CLEAR     69  67  92 CALM      30.01R FOG
BOONE          CLEAR     60  60 100 CALM      30.12R FOG
$$

NCZ021-022-025-041-071-084-088-040900-
CENTRAL NORTH CAROLINA

CITY           SKY/WX    TMP DP  RH WIND       PRES   REMARKS
CHARLOTTE      CLEAR     69  65  86 CALM      29.96R
GREENSBORO     PTCLDY    72  67  84 CALM      29.95S
WINSTON-SALEM  CLEAR     71  67  87 CALM      29.97S
RALEIGH-DURHAM PTCLDY    72  68  87 CALM      29.94R
FORT BRAGG     CLEAR     72  70  95 CALM      29.92R
FAYETTEVILLE   CLEAR     73  70  90 CALM      29.92R
BURLINGTON     CLEAR     68  68 100 CALM      29.94S
LAURINBURG     CLEAR     70  68  93 CALM      29.93R FOG
$$

NCZ011-015-027-028-043-044-047-080-103-040900-
NORTHEASTERN NORTH CAROLINA

CITY           SKY/WX    TMP DP  RH WIND       PRES   REMARKS
ROCKY MT-WILSO FOG       71  70  96 CALM      29.92R VSB 1
GREENVILLE     CLEAR     72  72 100 CALM      29.93S FOG
WASHINGTON     CLEAR     70  69  96 CALM      29.91R
ELIZABETH CITY PTCLDY    73  71  93 S6        29.90R
MANTEO         CLEAR     76  74  93 W3        29.90S
CAPE HATTERAS  CLEAR     78  74  87 N3        29.90R
$$

NCZ078-087-090-091-093-098-101-040900-
SOUTHEASTERN NORTH CAROLINA

CITY           SKY/WX    TMP DP  RH WIND       PRES   REMARKS
LUMBERTON      CLEAR     71  69  93 CALM      29.92R FOG
GOLDSBORO      CLEAR     72  71  96 CALM      29.90S
KINSTON        CLEAR     71  70  97 CALM      29.92R
KENANSVILLE      N/A     69  68  97 CALM      29.93R FOG
NEW BERN       CLEAR     71  69  93 CALM      29.92R
CHERRY POINT   CLEAR     73  70  90 CALM      29.92R
BEAUFORT       CLEAR     73  73 100 N3        29.90S
JACKSONVILLE   CLEAR     72  70  93 CALM      29.90S
WILMINGTON     CLEAR     71  69  93 CALM      29.91S
$$




USA.gov is the U.S. government's official web portal to all federal, state and local government web resources and services.